Regional Weather Roundup
Issued by NWS Albany, NY

Home | Current Version | Previous Version | Text Only | Print | Product List | Glossary On
Versions: 1 2 3 4 5 6 7 8 9 10 11 12 13 14 15 16 17 18 19 20 21 22 23 24 25 26 27 28 29 30 31 32 33 34 35 36 37 38 39 40 41 42 43 44 45 46 47 48 49 50
000
ASUS41 KALY 171410
RWRALY

NEW YORK STATE HOURLY WEATHER ROUNDUP
NATIONAL WEATHER SERVICE ALBANY NY
900 AM EST WED DEC 17 2014

NOTE: "FAIR" INDICATES FEW OR NO CLOUDS BELOW 12,000 FEET WITH NO
SIGNIFICANT WEATHER AND/OR NO OBSTRUCTIONS TO VISIBILITY.

NYZ032-033-038>043-046>054-057>066-NYZ062>081-171500-
EAST


CITY           SKY/WX    TMP DP  RH WIND       PRES   REMARKS
ALBANY         CLOUDY    36  35  96 CALM      29.83S FOG
GLENS FALLS    LGT RAIN  34  33  96 CALM      29.82S VSB 1/4
POUGHKEEPSIE   FOG       41  40  96 CALM      29.83S VSB 1/4
NEWBURGH       PTSUNNY   41  41 100 W7        29.85
MONTGOMERY     CLOUDY    43  41  93 S3        29.82S
WHITE PLAINS   MOSUNNY   45  41  86 NW8       29.82R
ISLIP          PTSUNNY   45  43  93 W8        29.81R FOG
NEW YORK CITY  MOSUNNY   46  40  79 NW13      29.84R
CENTRAL PARK   MOSUNNY   46  39  76 W8        29.87R
$$

NYZ005>009-017-018-044>046-055-056-171500-
CENTRAL


CITY           SKY/WX    TMP DP  RH WIND       PRES   REMARKS
FULTON         LGT RAIN  41  38  89 SW6       29.82R FOG
SYRACUSE       LGT RAIN  40  39  97 SW6       29.82R
ROME           LGT RAIN  38  37  97 E3        29.83S FOG
ELMIRA         LGT RAIN  42  37  82 W15G22    29.85R
BINGHAMTON     LGT RAIN  38  38 100 SW7       29.82R WCI  33
MONTICELLO     MOSUNNY   37  36  93 W9        29.83S WCI  31
$$

NYZ026>034-041>043-171500-
NORTH


CITY           SKY/WX    TMP DP  RH WIND       PRES   REMARKS
WATERTOWN      LGT RAIN  42  37  82 SW13      29.78R
FORT DRUM      NOT AVBL
MASSENA        CLOUDY    34  33  96 E6        29.79S FOG     WCI  29
SARANAC LAKE   CLOUDY    33  32  96 CALM      29.74S FOG
PLATTSBURGH    CLOUDY    34  34 100 CALM      29.79F FOG
$$

NYZ001>004-010>016-019>021-171500-
WEST


CITY           SKY/WX    TMP DP  RH WIND       PRES   REMARKS
NIAGARA FALLS  LGT RAIN  37  34  89 W17G24    29.86R WCI  27
BUFFALO        LGT RAIN  36  33  89 SW22G37   29.87R WCI  25
DUNKIRK        MIX PCPN  36  33  89 W15G26    29.94R WCI  27
JAMESTOWN      CLOUDY    34  28  80 W13       29.91R WCI  25
WELLSVILLE     FLURRIES  35  31  85 W18G24    29.86R WCI  24
ROCHESTER      CLOUDY    40  35  83 W16G26    29.84R WCI  31
PENN YAN       CLOUDY    42  33  70 SW18G25   29.84R
$$

             KEY
       WCI = WIND CHILL INDEX
       VSB = VISIBILITY
       HX  = HEAT INDEX
$$


USA.gov is the U.S. government's official web portal to all federal, state and local government web resources and services.